Home   Weather   Anderson   Past weeks

Flag for USA Past Weather in Anderson, South Carolina, USA — Yesterday and Last 2 Weeks

Now
47 °F

Low clouds.


Feels Like: 46 °F
Forecast: 42 / 57 °F
Wind: 3 mph from East

Location: Anderson County Airport

Current Time: Dec 7, 2016 at 7:52:37 am

Latest Report: Dec 7, 2016 at 6:56 am


Visibility: 9 mi

Pressure: 30.00 "Hg

Humidity: 97%

Dew Point: 46 °F

Location of AndersonLocation

Past Weather in Anderson — Graph

°F

Anderson Temperature Yesterday

Maximum temperature yesterday: 52 °F (at 12:56 am)
Minimum temperature yesterday: 46 °F (at 12:56 pm)
Average temperature yesterday: 48 °F

High & Low Weather Summary for the Past Weeks

 TemperatureHumidityPressure
High73 °F (Nov 25, 1:56 pm)97% (Nov 25, 7:56 am)30.33 "Hg (Nov 25, 7:56 am)
Low30 °F (Nov 22, 6:56 am)18% (Nov 26, 3:56 pm)29.63 "Hg (Nov 30, 3:56 pm)
Average52 °F69%30.08 "Hg
* Reported Nov 22 6:56 am — Dec 7 6:04 am, Anderson, Weather by CustomWeather, © 2016

Note: Actual official high and low records may vary slightly from our data, if they occured in-between our weather recording intervals... More about our weather records

Advertising

Anderson Weather History for the Previous 24 Hours

Scroll right to see more
 ConditionsComfort  
Time TempWeatherWind HumidityBarometerVisibility
6:04 am
Wed, Dec 7
47 °FFog.No wind97%29.98 "Hg1 mi
4:56 am48 °FFog.No wind96%29.96 "Hg1 mi
3:56 am48 °FFog.3 mph96%29.95 "Hg1 mi
2:56 am49 °FFog.3 mph97%29.93 "Hg1 mi
1:56 am49 °FFog.No wind97%29.92 "Hg1 mi
12:56 am49 °FFog.5 mph97%29.90 "Hg1 mi
11:56 pm
Tue, Dec 6
49 °FFog.3 mph97%29.88 "Hg1 mi
10:56 pm48 °FFog.3 mph96%29.89 "Hg3 mi
9:56 pm48 °FOvercast.3 mph93%29.88 "Hg10 mi
8:56 pm47 °FMostly cloudy.5 mph93%29.87 "Hg10 mi
7:56 pm48 °FMostly cloudy.3 mph89%29.85 "Hg10 mi
6:56 pm48 °FLow clouds.No wind89%29.84 "Hg10 mi
5:56 pm47 °FMostly cloudy.No wind93%29.82 "Hg10 mi
4:56 pm48 °FMostly cloudy.3 mph86%29.80 "Hg10 mi
3:56 pm48 °FMore clouds than sun.3 mph86%29.78 "Hg10 mi
2:56 pm48 °FMostly cloudy.7 mph86%29.76 "Hg10 mi
1:56 pm47 °FMostly cloudy.13 mph90%29.75 "Hg10 mi
12:56 pm46 °FLight rain. Mostly cloudy.6 mph93%29.78 "Hg7 mi
11:56 am47 °FLight rain. Mostly cloudy.6 mph93%29.77 "Hg8 mi
10:56 am47 °FFog.13 mph93%29.80 "Hg3 mi
9:56 am48 °FRain. Fog.7 mph96%29.79 "Hg2 mi
8:56 am49 °FLight rain. Fog.16 mph90%29.76 "Hg2 mi
7:56 am49 °FMostly cloudy.14 mph90%29.78 "Hg7 mi
Weather by CustomWeather, © 2016

See weather overviewHow to use our weather pages